Location: Luxembourg
(49.6117°N, 6.1300°E)
Time: 03:25:40
(UTC+01:00)

ISS - Pass Details

Date: 07 December 2021
Orbit: 413 x 422 km, 51.6° (Epoch: 22 January)

Event Time Altitude Azimuth Distance (km) Brightness Sun altitude
Rises 17:04:04 0° 288° (WNW) 2,387 0.8 -4.7°
Reaches altitude 10° 17:06:12 10° 286° (WNW) 1,518 -0.2 -5.0°
Maximum altitude 17:09:34 64° 205° (SSW) 475 -3.2 -5.5°
Drops below altitude 10° 17:12:55 10° 123° (ESE) 1,506 -1.2 -5.9°
Enters shadow 17:16:46 -6° 119° (ESE) 3,083 0.3 -6.5°
